Regional Weather Roundup
Issued by NWS

Home | Current Version | Previous Version | Graphics & Text | Print | Product List | Glossary On
Versions: 1 2 3 4 5 6 7 8 9 10 11 12 13 14 15 16 17 18 19 20 21 22 23 24 25 26 27 28 29 30 31 32 33 34 35 36 37 38 39 40 41 42 43 44 45 46 47 48 49 50
000
ASUS43 KFSD 210302
RWRSD

WEATHER ROUNDUP FOR SOUTH DAKOTA
NATIONAL WEATHER SERVICE SIOUX FALLS SD
900 PM CST SAT DEC 20 2014

NOTE: "FAIR" INDICATES FEW OR NO CLOUDS BELOW 12,000 FEET WITH NO
SIGNIFICANT WEATHER AND/OR OBSTRUCTIONS TO VISIBILITY.


SDZ001>005-009-010-012>017-210400-
NORTHWEST AND NORTH CENTRAL SOUTH DAKOTA

CITY           SKY/WX    TMP DP  RH WIND       PRES   REMARKS
BUFFALO          N/A     33  24  69 SW8       29.73F WCI  26
FAITH            N/A     35  25  66 SW6       29.83F
MOBRIDGE       MOCLDY    27  24  89 SE10      29.82S WCI  17
$$

SDZ012>016-024>037-041>051-057-063-072>074-210400-
SOUTHWEST AND SOUTH CENTRAL SOUTH DAKOTA

CITY           SKY/WX    TMP DP  RH WIND       PRES   REMARKS
RAPID CTY ARPT CLOUDY    33  26  75 CALM      29.84F
PIERRE         FOG       19  17  92 CALM      29.87S VSB 1/2
CUSTER         CLOUDY    29  21  72 CALM      29.82F
ELLSWORTH AFB  CLOUDY    35  26  69 NW2       29.83F
PHILIP         CLOUDY    30  24  78 W8        29.87F WCI  22
PINE RIDGE     MOCLDY    25  21  85 CALM      29.88F
WINNER         MOCLDY    33  26  75 SW6       29.89F WCI  28
$$

SDZ004>011-016>023-039-040-210400-
NORTHEAST SOUTH DAKOTA

CITY           SKY/WX    TMP DP  RH WIND       PRES   REMARKS
ABERDEEN       CLOUDY    31  28  89 S14       29.90F FOG     WCI  21
WATERTOWN      FOG       29  28  96 S16       29.91F VSB 3/4 WCI  17
SISSETON         N/A     31  30  96 S12       29.93R WCI  22
$$

SDZ017-020-022-023-036>040-048>070-210400-
SOUTHEAST SOUTH DAKOTA

CITY           SKY/WX    TMP DP  RH WIND       PRES   REMARKS
SIOUX FALLS    CLOUDY    30  29  96 S12       29.98F FOG     WCI  20
HURON          CLOUDY    30  29  96 S10       29.94S FOG     WCI  21
MITCHELL       CLOUDY    32  31  96 S12       29.95F FOG     WCI  23
YANKTON        CLOUDY    32  28  86 S12       29.99F WCI  23
$$

ABBREVIATIONS USED IN REMARKS
   TC - TEMPERATURE IN CELSIUS
  WCI - WIND CHILL INDEX
   HX - HEAT INDEX
  VSB - VISIBILITY




USA.gov is the U.S. government's official web portal to all federal, state and local government web resources and services.